This demonstration page uses our WeatherBlox Daily Observations layout. Learn more.

Left ArrowRight Arrow

Hourly Observations for July 15, 2015

Temp ( °F °C ) Dew Point ( °F °C ) Humidity (%) Winds ( mph kmh ) Pressure ( in mb ) Visibility ( mi km ) Precip ( " mm )
12:53 am 00:53 Clear 76 24.4 47 8.3 36 36 Calm 29.80 1009 10 16 0.00 0.00
1:53 am 01:53 Clear 74 23.3 46 7.8 37 37 Calm 29.80 1009 10 16 0.00 0.00
2:53 am 02:53 Clear 71 21.7 48 8.9 44 44 N 6 9 29.81 1010 10 16 0.00 0.00
3:53 am 03:53 Clear 70 21.1 48 8.9 46 46 Calm 29.82 1010 10 16 0.00 0.00
4:53 am 04:53 Clear 69 20.6 48 8.9 47 47 Calm 29.83 1010 10 16 0.00 0.00
5:53 am 05:53 Sunny 68 20 49 9.4 51 51 Calm 29.83 1010 10 16 0.00 0.00
6:53 am 06:53 Sunny 71 21.7 50 10 47 47 Calm 29.84 1010 10 16 0.00 0.00
7:53 am 07:53 Sunny 76 24.4 49 9.4 39 39 Calm 29.83 1010 10 16 0.00 0.00
8:53 am 08:53 Sunny 82 27.8 54 12.2 38 38 NNW 6 9 29.83 1010 10 16 0.00 0.00
9:53 am 09:53 Sunny 88 31.1 55 12.8 33 33 N 8 13 29.81 1009 10 16 0.00 0.00
10:53 am 10:53 Sunny 93 33.9 53 11.7 26 26 N 9 15 29.79 1009 10 16 0.00 0.00
11:53 am 11:53 Sunny 96 35.6 53 11.7 23 23 WNW 6 9 29.78 1008 10 16 0.00 0.00
12:53 pm 12:53 Sunny 100 37.8 49 9.4 18 18 NNW 9 15 29.75 1008 10 16 0.00 0.00
1:53 pm 13:53 Sunny 100 37.8 45 7.2 15 15 VRB 3 6 29.74 1007 10 16 0.00 0.00
2:53 pm 14:53 Sunny 102 38.9 44 6.7 14 14 WNW 10 17 29.73 1007 10 16 0.00 0.00
3:53 pm 15:53 Sunny 102 38.9 44 6.7 14 14 SSW 9 15 29.71 1006 10 16 0.00 0.00
4:53 pm 16:53 Sunny 104 40 44 6.7 13 13 SW 9 15 29.70 1006 10 16 0.00 0.00
5:53 pm 17:53 Sunny 103 39.4 46 7.8 15 15 SE 9 15 29.70 1006 10 16 0.00 0.00
6:53 pm 18:53 Sunny 102 38.9 48 8.9 16 16 SSE 13 20 29.70 1006 10 16 0.00 0.00
7:53 pm 19:53 Sunny 96 35.6 52 11.1 23 23 SSE 13 20 29.71 1006 10 16 0.00 0.00
8:53 pm 20:53 Clear 91 32.8 54 12.2 28 28 S 12 19 29.73 1007 10 16 0.00 0.00
9:53 pm 21:53 Clear 87 30.6 56 13.3 35 35 Calm 29.76 1008 10 16 0.00 0.00
10:53 pm 22:53 Clear 84 28.9 56 13.3 38 38 ESE 3 6 29.79 1009 10 16 0.00 0.00
11:53 pm 23:53 Clear 83 28.3 57 13.9 41 41 N 5 7 29.81 1010 10 16 0.00 0.00

Powered by AerisWeather